Language: 


Des rapports , des résumés tant et plus, au choix de chacun....


Données Historiques de Météogheer
Journalier Rapport pour Février 25, 2018 Unitée:  Métrique    Impériale   Les deux
Suivant Jour »
Journalier Hebdomadaire Mensuel Annuel Sur mesure
  Max: Min: Moyenne:
Température: 3.8 °C -3.1 °C -0.2 °C
Point de rosée: -8.0 °C -13.0 °C -10.7 °C
Humidité: 58% 29% 47%
Vent: 28.8km/h 7.9km/h 15.2km/h
Rafales: 30.9km/h - -
Vent- - ENE
Pression: 1027.0 hPa 1021.9 hPa -
Pluie: 0.0 mm    
Historical Graphs
 
 
Données tabulaires pour Février 25, 2018
Heure Température Point de rosée Pression Vent Vent Rafales Humidité Pluie Taux (Horaire) Conditions
00:02 -0.1 °C -8.0 °C 1022.9 hPa NNE 16.6 km/h 20.9 km/h 58% 0.0 mm
00:07 -0.1 °C -8.0 °C 1022.9 hPa ENE 17.7 km/h 21.2 km/h 58% 0.0 mm
00:12 -0.1 °C -8.0 °C 1022.9 hPa NNE 21.2 km/h 21.2 km/h 57% 0.0 mm
00:17 -0.2 °C -8.0 °C 1022.9 hPa NE 15.8 km/h 21.2 km/h 57% 0.0 mm
00:22 -0.2 °C -8.0 °C 1022.9 hPa NE 20.1 km/h 21.2 km/h 57% 0.0 mm
00:27 -0.2 °C -8.0 °C 1022.9 hPa NE 14.0 km/h 23.8 km/h 57% 0.0 mm
00:33 -0.3 °C -9.0 °C 1023.9 hPa NE 16.6 km/h 23.8 km/h 57% 0.0 mm
00:38 -0.4 °C -9.0 °C 1023.9 hPa NE 15.1 km/h 19.1 km/h 56% 0.0 mm
00:43 -0.4 °C -9.0 °C 1023.9 hPa ENE 14.0 km/h 25.3 km/h 56% 0.0 mm
00:48 -0.4 °C -9.0 °C 1022.9 hPa NE 13.7 km/h 25.3 km/h 56% 0.0 mm
00:51 -0.4 °C -9.0 °C 1022.9 hPa ENE 20.6 km/h 25.3 km/h 56% 0.0 mm
00:56 -0.5 °C -9.0 °C 1022.9 hPa East 9.7 km/h 20.6 km/h 56% 0.0 mm
01:01 -0.5 °C -9.0 °C 1022.9 hPa ENE 19.8 km/h 20.6 km/h 56% 0.0 mm
01:06 -0.5 °C -9.0 °C 1022.9 hPa NE 10.1 km/h 21.6 km/h 56% 0.0 mm
01:11 -0.6 °C -9.0 °C 1022.9 hPa East 10.8 km/h 23.3 km/h 56% 0.0 mm
01:16 -0.6 °C -9.0 °C 1022.9 hPa NE 14.0 km/h 23.3 km/h 56% 0.0 mm
01:21 -0.7 °C -9.0 °C 1022.9 hPa ENE 14.0 km/h 17.2 km/h 56% 0.0 mm
01:26 -0.8 °C -9.0 °C 1022.9 hPa NE 12.6 km/h 20.9 km/h 56% 0.0 mm
01:31 -0.8 °C -9.0 °C 1022.9 hPa ENE 12.6 km/h 21.2 km/h 56% 0.0 mm
01:36 -0.9 °C -9.0 °C 1022.9 hPa ENE 17.2 km/h 21.2 km/h 56% 0.0 mm
01:41 -0.9 °C -9.0 °C 1022.9 hPa NE 19.5 km/h 25.3 km/h 56% 0.0 mm
01:46 -0.9 °C -9.0 °C 1022.9 hPa East 21.2 km/h 25.3 km/h 56% 0.0 mm
01:51 -1.0 °C -9.0 °C 1022.9 hPa ENE 17.2 km/h 22.7 km/h 56% 0.0 mm
01:57 -1.0 °C -9.0 °C 1022.9 hPa ENE 9.7 km/h 22.7 km/h 56% 0.0 mm
02:02 -1.1 °C -9.0 °C 1022.9 hPa East 17.7 km/h 20.6 km/h 57% 0.0 mm
02:07 -1.1 °C -9.0 °C 1022.9 hPa ENE 16.9 km/h 24.5 km/h 57% 0.0 mm
02:12 -1.2 °C -9.0 °C 1022.9 hPa ENE 16.9 km/h 24.5 km/h 57% 0.0 mm
02:17 -1.2 °C -9.0 °C 1022.9 hPa East 9.7 km/h 21.2 km/h 57% 0.0 mm
02:22 -1.3 °C -9.0 °C 1022.9 hPa ENE 15.8 km/h 21.2 km/h 57% 0.0 mm
02:27 -1.3 °C -9.0 °C 1022.9 hPa ENE 10.5 km/h 21.2 km/h 57% 0.0 mm
02:32 -1.4 °C -9.0 °C 1022.9 hPa ENE 16.9 km/h 20.9 km/h 57% 0.0 mm
02:37 -1.4 °C -9.0 °C 1022.9 hPa ENE 13.0 km/h 20.9 km/h 57% 0.0 mm
02:42 -1.4 °C -9.0 °C 1022.9 hPa East 13.7 km/h 20.1 km/h 57% 0.0 mm
02:47 -1.4 °C -9.0 °C 1022.9 hPa NE 11.9 km/h 20.1 km/h 57% 0.0 mm
02:52 -1.4 °C -9.0 °C 1022.9 hPa East 14.0 km/h 19.8 km/h 57% 0.0 mm
02:57 -1.5 °C -10.0 °C 1022.9 hPa ENE 11.9 km/h 19.8 km/h 57% 0.0 mm
03:02 -1.4 °C -10.0 °C 1023.9 hPa ENE 15.1 km/h 19.5 km/h 56% 0.0 mm
03:07 -1.5 °C -10.0 °C 1023.9 hPa NE 12.2 km/h 20.9 km/h 56% 0.0 mm
03:12 -1.5 °C -10.0 °C 1023.9 hPa NE 9.7 km/h 20.9 km/h 56% 0.0 mm
03:17 -1.5 °C -10.0 °C 1022.9 hPa ENE 9.7 km/h 17.7 km/h 56% 0.0 mm
03:22 -1.6 °C -10.0 °C 1022.9 hPa NE 14.3 km/h 17.7 km/h 56% 0.0 mm
03:27 -1.6 °C -10.0 °C 1022.9 hPa NE 11.9 km/h 19.1 km/h 56% 0.0 mm
03:32 -1.7 °C -10.0 °C 1022.9 hPa ENE 12.6 km/h 19.1 km/h 56% 0.0 mm
03:37 -1.7 °C -10.0 °C 1022.9 hPa ENE 13.0 km/h 17.7 km/h 56% 0.0 mm
03:43 -1.7 °C -10.0 °C 1022.9 hPa East 12.6 km/h 19.1 km/h 56% 0.0 mm
03:48 -1.8 °C -10.0 °C 1022.9 hPa East 21.2 km/h 21.2 km/h 56% 0.0 mm
03:53 -1.8 °C -10.0 °C 1022.9 hPa NE 11.6 km/h 21.2 km/h 56% 0.0 mm
03:58 -1.8 °C -10.0 °C 1022.9 hPa East 12.6 km/h 21.2 km/h 56% 0.0 mm
04:03 -1.9 °C -10.0 °C 1022.9 hPa East 10.1 km/h 17.7 km/h 56% 0.0 mm
04:08 -1.9 °C -10.0 °C 1022.9 hPa East 10.5 km/h 19.8 km/h 56% 0.0 mm
04:13 -1.9 °C -10.0 °C 1022.9 hPa East 10.1 km/h 19.8 km/h 56% 0.0 mm
04:18 -1.9 °C -10.0 °C 1021.9 hPa ENE 12.2 km/h 19.8 km/h 56% 0.0 mm
04:23 -1.9 °C -10.0 °C 1021.9 hPa East 13.0 km/h 19.8 km/h 56% 0.0 mm
04:28 -1.9 °C -10.0 °C 1021.9 hPa East 16.3 km/h 19.5 km/h 56% 0.0 mm
04:33 -2.0 °C -10.0 °C 1022.9 hPa East 9.7 km/h 17.7 km/h 56% 0.0 mm
04:38 -2.0 °C -10.0 °C 1022.9 hPa ENE 14.0 km/h 20.9 km/h 56% 0.0 mm
04:43 -2.0 °C -10.0 °C 1022.9 hPa ENE 12.2 km/h 22.4 km/h 56% 0.0 mm
04:48 -2.0 °C -10.0 °C 1021.9 hPa NE 15.8 km/h 22.4 km/h 56% 0.0 mm
04:53 -2.0 °C -10.0 °C 1021.9 hPa NE 15.1 km/h 20.6 km/h 56% 0.0 mm
04:58 -2.1 °C -11.0 °C 1022.9 hPa ENE 10.5 km/h 18.3 km/h 55% 0.0 mm
05:04 -2.1 °C -10.0 °C 1022.9 hPa East 16.6 km/h 17.2 km/h 56% 0.0 mm
05:09 -2.1 °C -10.0 °C 1022.9 hPa ENE 17.7 km/h 17.7 km/h 56% 0.0 mm
05:14 -2.2 °C -11.0 °C 1021.9 hPa NE 13.0 km/h 19.5 km/h 55% 0.0 mm
05:19 -2.2 °C -10.0 °C 1021.9 hPa ENE 14.3 km/h 19.5 km/h 56% 0.0 mm
05:24 -2.3 °C -11.0 °C 1021.9 hPa NNE 13.0 km/h 19.8 km/h 56% 0.0 mm
05:29 -2.3 °C -11.0 °C 1022.9 hPa ENE 11.6 km/h 19.8 km/h 56% 0.0 mm
05:34 -2.3 °C -11.0 °C 1022.9 hPa ENE 17.2 km/h 17.2 km/h 56% 0.0 mm
05:39 -2.3 °C -11.0 °C 1022.9 hPa ENE 12.2 km/h 21.2 km/h 56% 0.0 mm
05:44 -2.4 °C -11.0 °C 1022.9 hPa ENE 16.6 km/h 21.2 km/h 56% 0.0 mm
05:49 -2.4 °C -11.0 °C 1022.9 hPa East 11.9 km/h 20.9 km/h 56% 0.0 mm
05:54 -2.4 °C -11.0 °C 1022.9 hPa ENE 12.6 km/h 28.0 km/h 56% 0.0 mm
05:59 -2.4 °C -11.0 °C 1022.9 hPa NE 17.7 km/h 28.0 km/h 56% 0.0 mm
06:04 -2.5 °C -11.0 °C 1022.9 hPa ENE 14.0 km/h 20.6 km/h 56% 0.0 mm
06:09 -2.5 °C -11.0 °C 1022.9 hPa ENE 16.9 km/h 19.8 km/h 56% 0.0 mm
06:14 -2.5 °C -11.0 °C 1022.9 hPa NNE 16.3 km/h 21.2 km/h 55% 0.0 mm
06:19 -2.6 °C -11.0 °C 1022.9 hPa East 12.2 km/h 21.2 km/h 56% 0.0 mm
06:24 -2.6 °C -11.0 °C 1022.9 hPa East 11.9 km/h 20.1 km/h 56% 0.0 mm
06:29 -2.6 °C -11.0 °C 1022.9 hPa ENE 14.3 km/h 23.3 km/h 56% 0.0 mm
06:34 -2.7 °C -11.0 °C 1022.9 hPa East 18.0 km/h 23.3 km/h 56% 0.0 mm
06:39 -2.7 °C -11.0 °C 1022.9 hPa ENE 16.6 km/h 21.9 km/h 56% 0.0 mm
06:44 -2.7 °C -11.0 °C 1022.9 hPa ENE 14.3 km/h 21.9 km/h 55% 0.0 mm
06:49 -2.7 °C -11.0 °C 1022.9 hPa East 14.3 km/h 25.3 km/h 55% 0.0 mm
06:54 -2.7 °C -11.0 °C 1022.9 hPa East 14.0 km/h 25.3 km/h 55% 0.0 mm
07:00 -2.8 °C -11.0 °C 1023.9 hPa ENE 20.6 km/h 25.6 km/h 55% 0.0 mm
07:05 -2.8 °C -11.0 °C 1023.9 hPa East 11.9 km/h 25.6 km/h 55% 0.0 mm
07:10 -2.8 °C -11.0 °C 1023.9 hPa ENE 15.8 km/h 21.2 km/h 55% 0.0 mm
07:15 -2.9 °C -11.0 °C 1023.9 hPa ENE 16.3 km/h 21.2 km/h 55% 0.0 mm
07:20 -2.9 °C -11.0 °C 1023.9 hPa ENE 10.8 km/h 18.0 km/h 55% 0.0 mm
07:25 -3.0 °C -11.0 °C 1023.9 hPa East 12.6 km/h 21.2 km/h 56% 0.0 mm
07:30 -3.0 °C -11.0 °C 1024.9 hPa East 12.2 km/h 21.2 km/h 56% 0.0 mm
07:35 -3.1 °C -11.0 °C 1024.9 hPa NNE 16.6 km/h 19.1 km/h 56% 0.0 mm
07:40 -3.1 °C -11.0 °C 1024.9 hPa NE 14.0 km/h 22.4 km/h 56% 0.0 mm
07:45 -3.1 °C -11.0 °C 1024.9 hPa ENE 17.2 km/h 24.8 km/h 56% 0.0 mm
07:50 -3.1 °C -11.0 °C 1024.9 hPa ENE 14.0 km/h 24.8 km/h 56% 0.0 mm
07:55 -3.1 °C -11.0 °C 1024.9 hPa NE 15.8 km/h 23.3 km/h 56% 0.0 mm
08:00 -3.1 °C -11.0 °C 1026.0 hPa NE 13.0 km/h 23.3 km/h 56% 0.0 mm
08:05 -3.1 °C -11.0 °C 1026.0 hPa ENE 15.8 km/h 22.4 km/h 56% 0.0 mm
08:10 -3.0 °C -11.0 °C 1026.0 hPa ENE 16.9 km/h 27.7 km/h 56% 0.0 mm
08:15 -2.9 °C -11.0 °C 1024.9 hPa ENE 17.2 km/h 27.7 km/h 56% 0.0 mm
08:20 -2.8 °C -11.0 °C 1024.9 hPa ENE 14.0 km/h 20.6 km/h 55% 0.0 mm
08:25 -2.7 °C -11.0 °C 1024.9 hPa ENE 13.7 km/h 21.6 km/h 55% 0.0 mm
08:30 -2.6 °C -11.0 °C 1024.9 hPa ENE 16.9 km/h 21.6 km/h 55% 0.0 mm
08:35 -2.5 °C -11.0 °C 1024.9 hPa ENE 17.7 km/h 24.8 km/h 54% 0.0 mm
08:40 -2.3 °C -11.0 °C 1024.9 hPa NE 17.7 km/h 25.6 km/h 54% 0.0 mm
08:45 -2.2 °C -11.0 °C 1024.9 hPa NE 13.0 km/h 28.0 km/h 53% 0.0 mm
08:51 -2.1 °C -11.0 °C 1024.9 hPa East 13.0 km/h 28.0 km/h 53% 0.0 mm
08:56 -2.0 °C -11.0 °C 1024.9 hPa East 14.0 km/h 27.4 km/h 53% 0.0 mm
09:01 -1.9 °C -11.0 °C 1024.9 hPa NE 14.0 km/h 27.4 km/h 52% 0.0 mm
09:06 -1.8 °C -11.0 °C 1024.9 hPa ENE 17.2 km/h 24.8 km/h 52% 0.0 mm
09:11 -1.7 °C -11.0 °C 1024.9 hPa East 14.3 km/h 24.8 km/h 52% 0.0 mm
09:16 -1.6 °C -11.0 °C 1024.9 hPa ESE 16.6 km/h 23.3 km/h 51% 0.0 mm
09:21 -1.5 °C -11.0 °C 1024.9 hPa ENE 20.6 km/h 26.2 km/h 51% 0.0 mm
09:26 -1.5 °C -11.0 °C 1024.9 hPa NNE 12.2 km/h 26.2 km/h 51% 0.0 mm
09:31 -1.4 °C -11.0 °C 1024.9 hPa ENE 21.6 km/h 24.8 km/h 51% 0.0 mm
09:36 -1.3 °C -11.0 °C 1024.9 hPa East 20.1 km/h 21.6 km/h 50% 0.0 mm
09:41 -1.2 °C -11.0 °C 1024.9 hPa ENE 19.1 km/h 22.4 km/h 50% 0.0 mm
09:46 -1.1 °C -11.0 °C 1026.0 hPa ENE 15.8 km/h 22.4 km/h 50% 0.0 mm
09:51 -1.0 °C -11.0 °C 1026.0 hPa ENE 17.2 km/h 20.6 km/h 50% 0.0 mm
09:56 -0.9 °C -11.0 °C 1026.0 hPa East 21.2 km/h 21.2 km/h 48% 0.0 mm
10:01 -0.8 °C -11.0 °C 1026.0 hPa East 19.5 km/h 21.2 km/h 48% 0.0 mm
10:06 -0.6 °C -11.0 °C 1026.0 hPa NE 18.3 km/h 21.2 km/h 48% 0.0 mm
10:07 -0.6 °C -11.0 °C 1026.0 hPa ENE 16.9 km/h 21.2 km/h 48% 0.0 mm
10:12 -0.5 °C -11.0 °C 1026.0 hPa ENE 12.2 km/h 21.2 km/h 48% 0.0 mm
10:17 -0.5 °C -11.0 °C 1026.0 hPa NE 9.7 km/h 24.8 km/h 47% 0.0 mm
10:22 -0.4 °C -11.0 °C 1026.0 hPa East 14.0 km/h 24.8 km/h 46% 0.0 mm
10:27 -0.1 °C -11.0 °C 1026.0 hPa ENE 10.1 km/h 21.2 km/h 47% 0.0 mm
10:32 0.1 °C -10.0 °C 1026.0 hPa ENE 13.0 km/h 21.9 km/h 47% 0.0 mm
10:37 0.1 °C -10.0 °C 1026.0 hPa ENE 19.8 km/h 28.5 km/h 46% 0.0 mm
10:42 0.1 °C -10.0 °C 1026.0 hPa East 20.9 km/h 28.5 km/h 45% 0.0 mm
10:47 0.2 °C -10.0 °C 1027.0 hPa ENE 9.0 km/h 24.8 km/h 45% 0.0 mm
10:52 0.4 °C -10.0 °C 1027.0 hPa ENE 16.6 km/h 23.3 km/h 45% 0.0 mm
10:57 0.4 °C -10.0 °C 1027.0 hPa East 13.7 km/h 23.8 km/h 44% 0.0 mm
11:02 0.6 °C -10.0 °C 1026.0 hPa NE 16.3 km/h 23.8 km/h 44% 0.0 mm
11:07 0.7 °C -10.0 °C 1026.0 hPa East 11.9 km/h 20.9 km/h 44% 0.0 mm
11:12 0.9 °C -10.0 °C 1026.0 hPa East 25.6 km/h 25.6 km/h 44% 0.0 mm
11:17 0.9 °C -10.0 °C 1026.0 hPa ENE 17.7 km/h 26.2 km/h 43% 0.0 mm
11:22 1.0 °C -10.0 °C 1026.0 hPa East 11.6 km/h 26.2 km/h 43% 0.0 mm
11:28 1.1 °C -10.0 °C 1026.0 hPa NE 16.9 km/h 21.2 km/h 43% 0.0 mm
11:33 1.2 °C -10.0 °C 1026.0 hPa ENE 16.6 km/h 21.2 km/h 43% 0.0 mm
11:38 1.4 °C -10.0 °C 1026.0 hPa East 16.9 km/h 21.2 km/h 43% 0.0 mm
11:43 1.4 °C -10.0 °C 1026.0 hPa East 12.6 km/h 21.2 km/h 42% 0.0 mm
11:48 1.5 °C -10.0 °C 1026.0 hPa ENE 19.5 km/h 21.2 km/h 42% 0.0 mm
11:53 1.7 °C -10.0 °C 1026.0 hPa ENE 16.3 km/h 19.5 km/h 42% 0.0 mm
11:58 1.7 °C -10.0 °C 1026.0 hPa East 12.2 km/h 21.2 km/h 42% 0.0 mm
12:03 1.7 °C -10.0 °C 1026.0 hPa East 17.2 km/h 21.2 km/h 42% 0.0 mm
12:08 1.7 °C -10.0 °C 1026.0 hPa East 9.3 km/h 21.2 km/h 41% 0.0 mm
12:13 1.9 °C -10.0 °C 1026.0 hPa East 23.3 km/h 23.3 km/h 41% 0.0 mm
12:18 2.0 °C -10.0 °C 1026.0 hPa ESE 10.1 km/h 23.3 km/h 41% 0.0 mm
12:23 2.1 °C -10.0 °C 1026.0 hPa East 16.3 km/h 20.6 km/h 41% 0.0 mm
12:28 2.2 °C -10.0 °C 1026.0 hPa East 12.2 km/h 20.9 km/h 41% 0.0 mm
12:33 2.3 °C -10.0 °C 1026.0 hPa East 16.9 km/h 20.9 km/h 40% 0.0 mm
12:38 2.3 °C -10.0 °C 1026.0 hPa NE 17.7 km/h 22.7 km/h 40% 0.0 mm
12:43 2.4 °C -10.0 °C 1026.0 hPa East 13.7 km/h 22.7 km/h 40% 0.0 mm
12:48 2.5 °C -9.0 °C 1026.0 hPa East 20.1 km/h 20.6 km/h 40% 0.0 mm
12:53 2.6 °C -9.0 °C 1026.0 hPa NE 16.3 km/h 20.6 km/h 40% 0.0 mm
12:58 2.6 °C -9.0 °C 1026.0 hPa NE 16.3 km/h 20.1 km/h 40% 0.0 mm
13:03 2.6 °C -9.0 °C 1026.0 hPa NE 14.0 km/h 24.8 km/h 40% 0.0 mm
13:08 2.7 °C -10.0 °C 1026.0 hPa ENE 17.2 km/h 24.8 km/h 39% 0.0 mm
13:14 2.8 °C -9.0 °C 1026.0 hPa ENE 14.0 km/h 23.8 km/h 39% 0.0 mm
13:19 2.9 °C -9.0 °C 1026.0 hPa NE 20.6 km/h 24.8 km/h 39% 0.0 mm
13:24 3.0 °C -9.0 °C 1026.0 hPa ENE 16.3 km/h 24.8 km/h 39% 0.0 mm
13:29 3.0 °C -10.0 °C 1026.0 hPa ENE 20.1 km/h 24.8 km/h 38% 0.0 mm
13:34 3.0 °C -9.0 °C 1026.0 hPa NE 14.0 km/h 24.8 km/h 39% 0.0 mm
13:39 3.3 °C -9.0 °C 1026.0 hPa ENE 12.6 km/h 20.1 km/h 39% 0.0 mm
13:44 3.5 °C -9.0 °C 1024.9 hPa ENE 9.0 km/h 16.9 km/h 39% 0.0 mm
13:49 3.4 °C -9.0 °C 1024.9 hPa NNE 9.0 km/h 17.7 km/h 39% 0.0 mm
13:54 3.5 °C -9.0 °C 1024.9 hPa East 13.0 km/h 17.7 km/h 39% 0.0 mm
13:59 3.6 °C -9.0 °C 1024.9 hPa NE 11.9 km/h 16.6 km/h 38% 0.0 mm
14:04 3.6 °C -9.0 °C 1024.9 hPa East 9.7 km/h 16.6 km/h 38% 0.0 mm
14:09 3.6 °C -10.0 °C 1024.9 hPa NE 14.8 km/h 16.6 km/h 37% 0.0 mm
14:14 3.7 °C -9.0 °C 1024.9 hPa ENE 13.7 km/h 16.6 km/h 38% 0.0 mm
14:19 3.6 °C -10.0 °C 1024.9 hPa East 9.0 km/h 16.6 km/h 36% 0.0 mm
14:24 3.6 °C -10.0 °C 1024.9 hPa ENE 17.7 km/h 24.8 km/h 37% 0.0 mm
14:29 3.6 °C -10.0 °C 1024.9 hPa East 13.0 km/h 24.8 km/h 35% 0.0 mm
14:34 3.7 °C -10.0 °C 1024.9 hPa NNE 18.0 km/h 21.6 km/h 35% 0.0 mm
14:40 3.6 °C -10.0 °C 1024.9 hPa ENE 15.8 km/h 21.2 km/h 36% 0.0 mm
14:45 3.7 °C -10.0 °C 1024.9 hPa NE 19.1 km/h 20.1 km/h 36% 0.0 mm
14:50 3.7 °C -10.0 °C 1024.9 hPa NE 14.0 km/h 20.9 km/h 35% 0.0 mm
14:55 3.7 °C -10.0 °C 1024.9 hPa NE 16.3 km/h 20.9 km/h 35% 0.0 mm
15:00 3.8 °C -11.0 °C 1024.9 hPa ENE 12.6 km/h 20.9 km/h 34% 0.0 mm
15:05 3.7 °C -10.0 °C 1024.9 hPa NE 16.6 km/h 22.7 km/h 35% 0.0 mm
15:10 3.6 °C -10.0 °C 1024.9 hPa NE 16.3 km/h 29.9 km/h 35% 0.0 mm
15:15 3.6 °C -11.0 °C 1023.9 hPa NE 15.8 km/h 29.9 km/h 34% 0.0 mm
15:20 3.6 °C -11.0 °C 1023.9 hPa NNE 17.7 km/h 27.4 km/h 33% 0.0 mm
15:25 3.5 °C -11.0 °C 1023.9 hPa NE 16.9 km/h 27.4 km/h 33% 0.0 mm
15:30 3.5 °C -11.0 °C 1024.9 hPa NE 19.5 km/h 25.6 km/h 33% 0.0 mm
15:35 3.6 °C -11.0 °C 1024.9 hPa ENE 17.2 km/h 25.6 km/h 33% 0.0 mm
15:40 3.7 °C -11.0 °C 1024.9 hPa ENE 13.0 km/h 20.9 km/h 32% 0.0 mm
15:45 3.7 °C -11.0 °C 1024.9 hPa NE 19.8 km/h 26.7 km/h 32% 0.0 mm
15:50 3.7 °C -11.0 °C 1024.9 hPa NE 20.9 km/h 28.0 km/h 32% 0.0 mm
15:55 3.6 °C -11.0 °C 1024.9 hPa NE 19.8 km/h 28.0 km/h 33% 0.0 mm
16:00 3.7 °C -11.0 °C 1024.9 hPa ENE 14.0 km/h 28.5 km/h 32% 0.0 mm
16:05 3.5 °C -12.0 °C 1024.9 hPa NE 19.8 km/h 28.5 km/h 31% 0.0 mm
16:11 3.4 °C -12.0 °C 1024.9 hPa NE 21.2 km/h 29.9 km/h 31% 0.0 mm
16:16 3.3 °C -12.0 °C 1024.9 hPa NE 17.2 km/h 29.9 km/h 30% 0.0 mm
16:21 3.3 °C -12.0 °C 1024.9 hPa NE 13.7 km/h 24.5 km/h 30% 0.0 mm
16:26 3.3 °C -12.0 °C 1024.9 hPa ENE 20.1 km/h 27.7 km/h 30% 0.0 mm
16:31 3.1 °C -13.0 °C 1023.9 hPa ENE 16.6 km/h 27.7 km/h 29% 0.0 mm
16:36 3.1 °C -13.0 °C 1023.9 hPa ENE 10.1 km/h 27.4 km/h 30% 0.0 mm
16:41 3.1 °C -13.0 °C 1023.9 hPa NE 17.7 km/h 22.7 km/h 30% 0.0 mm
16:46 3.0 °C -13.0 °C 1024.9 hPa ENE 15.8 km/h 22.7 km/h 30% 0.0 mm
16:51 2.8 °C -13.0 °C 1024.9 hPa NE 16.6 km/h 30.9 km/h 30% 0.0 mm
16:56 2.7 °C -13.0 °C 1024.9 hPa ENE 19.5 km/h 30.9 km/h 30% 0.0 mm
17:01 2.6 °C -12.0 °C 1024.9 hPa NE 13.7 km/h 19.8 km/h 32% 0.0 mm
17:06 2.5 °C -12.0 °C 1024.9 hPa ENE 16.3 km/h 25.9 km/h 32% 0.0 mm
17:11 2.5 °C -12.0 °C 1024.9 hPa NE 13.7 km/h 25.9 km/h 31% 0.0 mm
17:16 2.3 °C -13.0 °C 1024.9 hPa ENE 28.8 km/h 28.8 km/h 30% 0.0 mm
17:21 2.2 °C -13.0 °C 1024.9 hPa NNE 16.3 km/h 28.8 km/h 31% 0.0 mm
17:26 2.1 °C -13.0 °C 1024.9 hPa NNE 17.2 km/h 28.8 km/h 32% 0.0 mm
17:31 2.0 °C -12.0 °C 1024.9 hPa ENE 19.5 km/h 23.8 km/h 33% 0.0 mm
17:36 1.9 °C -12.0 °C 1024.9 hPa ENE 23.8 km/h 23.8 km/h 35% 0.0 mm
17:41 1.8 °C -12.0 °C 1024.9 hPa NE 16.9 km/h 24.8 km/h 35% 0.0 mm
17:47 1.7 °C -12.0 °C 1024.9 hPa NE 13.0 km/h 27.0 km/h 35% 0.0 mm
17:52 1.5 °C -12.0 °C 1024.9 hPa NE 19.8 km/h 27.0 km/h 34% 0.0 mm
17:57 1.3 °C -13.0 °C 1024.9 hPa NNE 13.7 km/h 24.8 km/h 34% 0.0 mm
18:02 1.2 °C -12.0 °C 1024.9 hPa NE 17.7 km/h 24.8 km/h 35% 0.0 mm
18:07 1.1 °C -12.0 °C 1024.9 hPa NNE 13.0 km/h 23.3 km/h 36% 0.0 mm
18:12 0.9 °C -12.0 °C 1024.9 hPa NE 28.5 km/h 28.5 km/h 38% 0.0 mm
18:17 0.8 °C -12.0 °C 1024.9 hPa NE 19.8 km/h 28.5 km/h 38% 0.0 mm
18:22 0.7 °C -11.0 °C 1024.9 hPa NNE 15.4 km/h 28.5 km/h 39% 0.0 mm
18:27 0.6 °C -11.0 °C 1024.9 hPa NE 14.0 km/h 24.8 km/h 39% 0.0 mm
18:32 0.5 °C -11.0 °C 1024.9 hPa NE 20.1 km/h 20.1 km/h 40% 0.0 mm
18:37 0.4 °C -11.0 °C 1024.9 hPa NNE 15.8 km/h 20.1 km/h 40% 0.0 mm
18:42 0.4 °C -11.0 °C 1024.9 hPa NE 24.8 km/h 24.8 km/h 40% 0.0 mm
18:46 0.3 °C -11.0 °C 1026.0 hPa NE 15.8 km/h 24.8 km/h 40% 0.0 mm
18:51 0.3 °C -11.0 °C 1026.0 hPa NE 12.6 km/h 24.8 km/h 40% 0.0 mm
18:56 0.1 °C -12.0 °C 1026.0 hPa NNE 14.0 km/h 19.5 km/h 40% 0.0 mm
19:01 0.1 °C -11.0 °C 1026.0 hPa NE 12.6 km/h 17.7 km/h 41% 0.0 mm
19:06 0.1 °C -11.0 °C 1026.0 hPa NE 15.8 km/h 21.2 km/h 41% 0.0 mm
19:11 0.0 °C -12.0 °C 1026.0 hPa ENE 16.6 km/h 21.2 km/h 41% 0.0 mm
19:16 0.0 °C -12.0 °C 1026.0 hPa NE 14.0 km/h 20.1 km/h 41% 0.0 mm
19:21 -0.1 °C -12.0 °C 1026.0 hPa NNE 13.7 km/h 19.8 km/h 41% 0.0 mm
19:26 -0.1 °C -12.0 °C 1026.0 hPa ENE 11.9 km/h 21.2 km/h 41% 0.0 mm
19:31 -0.3 °C -13.0 °C 1026.0 hPa ENE 13.7 km/h 21.2 km/h 41% 0.0 mm
19:36 -0.3 °C -13.0 °C 1026.0 hPa NE 14.3 km/h 16.3 km/h 41% 0.0 mm
19:38 -0.3 °C -13.0 °C 1026.0 hPa NE 12.2 km/h 16.3 km/h 41% 0.0 mm
19:43 -0.4 °C -13.0 °C 1026.0 hPa NE 14.0 km/h 14.3 km/h 41% 0.0 mm
19:48 -0.5 °C -13.0 °C 1026.0 hPa NNE 15.8 km/h 15.8 km/h 41% 0.0 mm
19:53 -0.5 °C -13.0 °C 1026.0 hPa NE 16.9 km/h 17.7 km/h 41% 0.0 mm
19:58 -0.6 °C -13.0 °C 1026.0 hPa ENE 7.9 km/h 17.7 km/h 42% 0.0 mm
20:03 -0.8 °C -13.0 °C 1026.0 hPa North 16.3 km/h 17.2 km/h 42% 0.0 mm
20:08 -0.9 °C -13.0 °C 1026.0 hPa NNE 13.7 km/h 17.2 km/h 42% 0.0 mm
20:13 -1.0 °C -13.0 °C 1026.0 hPa NNE 9.3 km/h 14.3 km/h 43% 0.0 mm
20:18 -1.2 °C -12.0 °C 1026.0 hPa NNE 11.9 km/h 13.7 km/h 44% 0.0 mm
20:23 -1.3 °C -12.0 °C 1026.0 hPa NE 15.1 km/h 15.1 km/h 44% 0.0 mm
20:28 -1.4 °C -12.0 °C 1026.0 hPa ENE 13.0 km/h 16.3 km/h 45% 0.0 mm
20:33 -1.4 °C -12.0 °C 1026.0 hPa NE 10.5 km/h 16.6 km/h 46% 0.0 mm
20:38 -1.4 °C -12.0 °C 1026.0 hPa NNE 13.0 km/h 16.9 km/h 46% 0.0 mm
20:43 -1.4 °C -12.0 °C 1026.0 hPa NE 12.6 km/h 19.1 km/h 47% 0.0 mm
20:48 -1.4 °C -12.0 °C 1026.0 hPa NE 10.5 km/h 19.1 km/h 47% 0.0 mm
20:53 -1.4 °C -11.0 °C 1026.0 hPa NE 20.1 km/h 20.1 km/h 48% 0.0 mm
20:58 -1.4 °C -11.0 °C 1026.0 hPa NE 11.9 km/h 20.1 km/h 49% 0.0 mm
21:03 -1.4 °C -11.0 °C 1026.0 hPa NE 16.3 km/h 20.1 km/h 49% 0.0 mm
21:08 -1.4 °C -11.0 °C 1026.0 hPa NE 13.7 km/h 20.1 km/h 50% 0.0 mm
21:13 -1.5 °C -11.0 °C 1026.0 hPa NE 12.6 km/h 16.3 km/h 50% 0.0 mm
21:18 -1.5 °C -11.0 °C 1027.0 hPa NE 19.8 km/h 20.9 km/h 50% 0.0 mm
21:23 -1.5 °C -11.0 °C 1027.0 hPa ENE 16.3 km/h 20.9 km/h 51% 0.0 mm
21:28 -1.5 °C -11.0 °C 1026.0 hPa NE 17.2 km/h 19.8 km/h 51% 0.0 mm
21:33 -1.6 °C -11.0 °C 1026.0 hPa NE 13.0 km/h 19.8 km/h 51% 0.0 mm
21:39 -1.7 °C -11.0 °C 1026.0 hPa NE 12.6 km/h 17.7 km/h 51% 0.0 mm
21:44 -1.7 °C -11.0 °C 1027.0 hPa NE 12.2 km/h 20.6 km/h 51% 0.0 mm
21:49 -1.7 °C -11.0 °C 1027.0 hPa NE 14.0 km/h 20.6 km/h 51% 0.0 mm
21:54 -1.8 °C -11.0 °C 1027.0 hPa ENE 16.9 km/h 16.9 km/h 51% 0.0 mm
21:59 -1.7 °C -11.0 °C 1027.0 hPa NE 15.8 km/h 17.2 km/h 51% 0.0 mm
22:04 -1.7 °C -11.0 °C 1027.0 hPa ENE 14.0 km/h 17.2 km/h 50% 0.0 mm
22:09 -1.7 °C -11.0 °C 1027.0 hPa NE 15.8 km/h 16.9 km/h 49% 0.0 mm
22:14 -1.6 °C -12.0 °C 1027.0 hPa ENE 16.3 km/h 22.4 km/h 48% 0.0 mm
22:19 -1.7 °C -11.0 °C 1027.0 hPa NE 11.9 km/h 22.4 km/h 49% 0.0 mm
22:24 -1.8 °C -11.0 °C 1027.0 hPa ENE 12.2 km/h 16.9 km/h 49% 0.0 mm
22:29 -1.8 °C -11.0 °C 1026.0 hPa NE 14.0 km/h 19.1 km/h 49% 0.0 mm
22:34 -1.8 °C -11.0 °C 1026.0 hPa NE 15.8 km/h 19.1 km/h 49% 0.0 mm
22:39 -1.9 °C -12.0 °C 1026.0 hPa ENE 12.6 km/h 18.0 km/h 49% 0.0 mm
22:45 -1.9 °C -12.0 °C 1027.0 hPa ENE 13.7 km/h 21.2 km/h 49% 0.0 mm
22:50 -1.9 °C -12.0 °C 1027.0 hPa ENE 14.8 km/h 21.2 km/h 49% 0.0 mm
22:55 -1.9 °C -12.0 °C 1027.0 hPa NE 16.6 km/h 24.5 km/h 49% 0.0 mm
23:00 -1.9 °C -12.0 °C 1027.0 hPa NE 20.6 km/h 24.5 km/h 49% 0.0 mm
23:05 -2.0 °C -12.0 °C 1027.0 hPa ENE 12.6 km/h 20.9 km/h 50% 0.0 mm
23:10 -2.0 °C -12.0 °C 1027.0 hPa NE 12.2 km/h 20.6 km/h 50% 0.0 mm
23:15 -2.1 °C -12.0 °C 1027.0 hPa ENE 14.3 km/h 21.2 km/h 50% 0.0 mm
23:20 -2.1 °C -12.0 °C 1027.0 hPa NE 14.3 km/h 21.2 km/h 50% 0.0 mm
23:25 -2.1 °C -12.0 °C 1027.0 hPa NE 24.8 km/h 24.8 km/h 50% 0.0 mm
23:30 -2.1 °C -12.0 °C 1027.0 hPa ENE 16.6 km/h 24.8 km/h 50% 0.0 mm
23:35 -2.2 °C -12.0 °C 1027.0 hPa ENE 13.7 km/h 24.8 km/h 50% 0.0 mm
23:40 -2.2 °C -12.0 °C 1027.0 hPa ENE 13.7 km/h 21.2 km/h 50% 0.0 mm
23:45 -2.2 °C -12.0 °C 1027.0 hPa ENE 13.7 km/h 13.7 km/h 50% 0.0 mm
23:50 -2.3 °C -12.0 °C 1027.0 hPa ENE 13.7 km/h 13.7 km/h 51% 0.0 mm
23:55 -2.3 °C -12.0 °C 1027.0 hPa ENE 13.7 km/h 13.7 km/h 51% 0.0 mm
Données Historique de Météo Turbie

Mise a jour : 18/06/2018 00:15:12
Généré par Cumulus 1.9.4 (1099)